Voltar ao catálogo

JILIN-01 KUANFU 02B 1

AtivoCiênciaSSO
NORAD 61189·PAYLOAD·🇨🇳 China

Lançado Sep 20, 2024 de Taiyuan Satellite Launch Center

Loading…

Próximas Passagens (próximas 24 horas)

TLE

AtualizadoSource: Space-Track

Época: Sep 14, 2026, 13:27 UTC

1 61189U 24169A   26257.56105053  .00002407  00000-0  15455-3 0  9990
2 61189  97.5550 345.7330 0004235  97.9884 262.1826 15.09400867109302

Acompanhe JILIN-01 KUANFU 02B 1 em tempo real com AllMySat

Download on the App Store